Regional Weather Roundup
Issued by NWS Northern Indiana

Home | Current Version | Previous Version | Text Only | Print | Product List | Glossary On
Versions: 1 2 3 4 5 6 7 8 9 10 11 12 13 14 15 16 17 18 19 20 21 22 23 24 25 26 27 28 29 30 31 32 33 34 35 36 37 38 39 40 41 42 43 44 45 46 47 48 49 50
000
ASUS43 KIWX 160110
RWRIWX

KIWX WEATHER ROUNDUP
NATIONAL WEATHER SERVICE NORTHERN INDIANA
900 PM EDT MON SEP 15 2014

NOTE: "FAIR" INDICATES FEW OR NO CLOUDS BELOW 12,000 FEET WITH NO
SIGNIFICANT WEATHER AND/OR OBSTRUCTIONS TO VISIBILITY.

* THESE STATIONS ARE NOT UNDER NWS QUALITY CONTROL. THEY ALSO MAY NOT
  REPORT WEATHER SUCH AS PRECIPITATION OR FOG.

INZ001>027-160200-
NORTHERN INDIANA

CITY           SKY/WX    TMP DP  RH WIND       PRES   REMARKS
GARY*          CLOUDY    57  55  94 SW7       30.12R
VALPARAISO     CLOUDY    54  52  93 W3        30.12R
MICHIGAN CITY* CLOUDY    54  54 100 S3        30.12R
LAPORTE*       CLOUDY    53  53 100 SW3       30.12R FOG
KNOX*          CLOUDY    53  51  93 CALM      30.11S
SOUTH BEND     CLOUDY    55  53  93 SW5       30.12R
ELKHART*       CLOUDY    55  54  94 SW5       30.11R
GOSHEN         LGT RAIN  55  53  93 W3        30.11R FOG
MONTICELLO*    DRIZZLE   55  55 100 CALM      30.11R
LOGANSPORT*    HVY RAIN  54  54 100 CALM      30.12R
ROCHESTER*     LGT RAIN  55  55 100 N5        30.12R
WARSAW*        DRIZZLE   54  54 100 W3        30.11R
ANGOLA*        CLOUDY    54  43  66 CALM      30.09F
FORT WAYNE     LGT RAIN  55  53  93 NW3       30.11S FOG
HUNTINGTON*    LGT RAIN  54  54  99 CALM      30.11R
PERU/GRISSOM   LGT RAIN  56  56 100 N3        30.11R FOG
MARION*        CLOUDY    56  54  94 CALM      30.11S FOG

$$
INZ028>050-160200-
CENTRAL INDIANA

CITY           SKY/WX    TMP DP  RH WIND       PRES   REMARKS
LAFAYETTE      CLOUDY    55  55 100 CALM      30.11R FOG
KOKOMO*        CLOUDY    57  54  88 N5        30.11R
MUNCIE*        LGT RAIN  57  54  89 NW5       30.11R FOG
INDIANAPOLIS   LGT RAIN  56  55  97 N5        30.08S FOG

$$
MIZ043>046-050>051-056>058-064>065-071>073-077>080-160200-
SOUTHWEST LOWER MICHIGAN

CITY           SKY/WX    TMP DP  RH WIND       PRES   REMARKS
BATTLE CREEK   CLOUDY    54  51  90 W3        30.10S
BENTON HARBOR  CLOUDY    57  53  86 N5        30.10R
COLDWATER*     CLOUDY    55  54  95 W5        30.10S
HILLSDALE*     HVY RAIN  55  55 100 CALM      30.10R
HOLLAND        CLOUDY    56  53  90 N6        30.12R
GRAND RAPIDS   CLOUDY    54  53  97 N5        30.11R
KALAMAZOO      CLOUDY    55  52  89 CALM      30.10S
STURGIS*       CLOUDY    54  52  94 W3        30.09S
THREE RIVERS*  CLOUDY    55  53  93 CALM      30.10S

$$
OHZ001>008-015>018-024>025-160200-
NORTHWEST OHIO

CITY           SKY/WX    TMP DP  RH WIND       PRES   REMARKS
WAUSEON*       LGT RAIN  54  54 100 CALM      30.09S
DEFIANCE       CLOUDY    56  53  90 CALM      30.09F
FINDLAY        LGT RAIN  56  53  90 N8        30.09R FOG
TOLEDO EXPRESS LGT RAIN  53  52  96 NW5       30.09F
TOLEDO METCALF LGT RAIN  55  52  89 W7        30.10S
LIMA           HVY RAIN  57  54  89 N9        30.10R FOG

$$
&&


USA.gov is the U.S. government's official web portal to all federal, state and local government web resources and services.